Location: Three Oaks Observatory
(31.1535°N, 83.5955°W)
Time: 10:30:12
(UTC-04:00)

Hubble Space Telescope - Pass Details

Date: 23 September 2018
Orbit: 537 x 541 km, 28.5° (Epoch: 19 October)

Event Time Altitude Azimuth Distance (km) Brightness Sun altitude
Rises 21:19:12 0° 270° (W) 2,670 5.6 -24.0°
Reaches altitude 10° 21:21:35 10° 262° (W) 1,779 4.3 -24.5°
Enters shadow 21:24:39 34° 220° (SW) 887 2.0 -25.2°
